| time (UTC) | temp F | wind direction | speed knots | gust knots | rain 1hr in | rain 24hr in | rain mn in | humidity % | barometer mb |
| 20260504214554 | 0 | 0.0 | 0.0 | 0.00 | 0.00 | 0.00 | 1006.5 | ||
| 20260504213055 | 0 | 0.0 | 0.0 | 0.00 | 0.00 | 0.00 | 1006.6 | ||
| 20260504211554 | 0 | 0.0 | 0.0 | 0.00 | 0.00 | 0.00 | 1006.7 | ||
| 20260504210107 | 0 | 0.0 | 0.0 | 0.00 | 0.00 | 0.00 | 1006.8 | ||
| 20260504204602 | 0 | 0.0 | 0.0 | 0.00 | 0.00 | 0.00 | 1006.8 | ||
| 20260504203054 | 0 | 0.0 | 0.0 | 0.00 | 0.00 | 0.00 | 1007.1 | ||
| 20260504201556 | 0 | 0.0 | 0.0 | 0.00 | 0.00 | 0.00 | 1007.0 | ||
| 20260504200059 | 0 | 0.0 | 0.0 | 0.00 | 0.00 | 0.00 | 1007.2 | ||
| 20260504194607 | 0 | 0.0 | 0.0 | 0.00 | 0.01 | 0.00 | 1007.5 | ||
| 20260504193056 | 0 | 0.0 | 0.0 | 0.00 | 0.01 | 0.00 | 1007.6 | ||
| 20260504191555 | 0 | 0.0 | 0.0 | 0.00 | 0.01 | 0.00 | 1007.6 | ||
| 20260504190120 | 0 | 0.0 | 0.0 | 0.00 | 0.01 | 0.00 | 1007.8 | ||
| 20260504184556 | 0 | 0.0 | 0.0 | 0.00 | 0.01 | 0.00 | 1007.6 | ||
| 20260504183050 | 66 | 239 | 4.3 | 12.2 | 0.00 | 0.01 | 0.00 | 100 | 1007.7 |
| 20260504181600 | 67 | 314 | 3.5 | 12.2 | 0.00 | 0.01 | 0.00 | 36 | 1007.7 |
| 20260504180155 | 66 | 314 | 4.3 | 11.3 | 0.00 | 0.01 | 0.00 | 38 | 1007.9 |
| 20260504174557 | 67 | 297 | 2.6 | 14.8 | 0.00 | 0.01 | 0.00 | 35 | 1007.9 |
| 20260504173059 | 65 | 284 | 3.5 | 21.7 | 0.00 | 0.01 | 0.00 | 38 | 1008.1 |
| 20260504171557 | 64 | 287 | 4.3 | 13.9 | 0.00 | 0.01 | 0.00 | 38 | 1008.2 |
| 20260504120112 | 52 | 299 | 2.6 | 5.2 | 0.00 | 0.01 | 0.00 | 57 | 1010.6 |
| 20260504081555 | 31 | 0 | 0.0 | 1.7 | 0.00 | 0.01 | 0.00 | 100 | 1010.9 |
| 20260504050120 | 35 | 0 | 0.0 | 0.9 | 0.00 | 0.01 | 0.00 | 47 | 1011.1 |
| 20260504044551 | 36 | 0 | 0.0 | 0.0 | 0.00 | 0.01 | 0.00 | 52 | 1011.1 |
| 20260504043057 | 36 | 0 | 0.0 | 0.0 | 0.00 | 0.01 | 0.00 | 53 | 1010.9 |
| 20260504041549 | 36 | 0 | 0.0 | 0.0 | 0.00 | 0.01 | 0.00 | 60 | 1011.1 |
| 20260504040049 | 36 | 0 | 0.0 | 0.0 | 0.00 | 0.01 | 0.00 | 65 | 1011.0 |
| 20260504034552 | 37 | 0 | 0.0 | 0.0 | 0.00 | 0.01 | 0.01 | 67 | 1010.9 |
| 20260504033051 | 36 | 0 | 0.0 | 0.0 | 0.00 | 0.01 | 0.01 | 69 | 1011.0 |
| 20260504031610 | 37 | 0 | 0.0 | 0.9 | 0.00 | 0.01 | 0.01 | 74 | 1010.9 |
| 20260504030048 | 38 | 0 | 0.0 | 0.0 | 0.00 | 0.01 | 0.01 | 75 | 1010.7 |
| 20260504024549 | 39 | 0 | 0.0 | 0.9 | 0.00 | 0.01 | 0.01 | 75 | 1010.9 |
| 20260504023051 | 40 | 0 | 0.0 | 0.0 | 0.00 | 0.01 | 0.01 | 73 | 1010.8 |
| 20260504021552 | 41 | 337 | 0.9 | 1.7 | 0.00 | 0.01 | 0.01 | 70 | 1010.7 |
| 20260504020055 | 43 | 0 | 0.0 | 0.0 | 0.00 | 0.01 | 0.01 | 66 | 1010.7 |
| 20260504014553 | 44 | 0 | 0.0 | 0.0 | 0.00 | 0.01 | 0.01 | 63 | 1010.7 |
| 20260504013057 | 45 | 0 | 0.0 | 1.7 | 0.00 | 0.01 | 0.01 | 61 | 1010.6 |
| 20260504011555 | 48 | 0 | 0.0 | 3.5 | 0.00 | 0.01 | 0.01 | 55 | 1010.4 |
| 20260504010058 | 49 | 288 | 1.7 | 5.2 | 0.00 | 0.01 | 0.01 | 51 | 1010.1 |
| 20260504004558 | 49 | 200 | 0.9 | 6.1 | 0.00 | 0.01 | 0.01 | 50 | 1009.9 |
| 20260504003054 | 50 | 302 | 4.3 | 10.4 | 0.00 | 0.01 | 0.01 | 49 | 1009.8 |
| 20260504001609 | 51 | 311 | 3.5 | 13.9 | 0.00 | 0.01 | 0.01 | 47 | 1009.8 |
| 20260504000058 | 51 | 343 | 6.1 | 14.8 | 0.00 | 0.01 | 0.01 | 46 | 1009.4 |
| 20260503234554 | 51 | 281 | 5.2 | 13.9 | 0.00 | 0.01 | 0.01 | 45 | 1009.2 |
| 20260503233059 | 51 | 297 | 5.2 | 14.8 | 0.00 | 0.01 | 0.01 | 44 | 1009.1 |
| 20260503231555 | 52 | 283 | 2.6 | 7.0 | 0.00 | 0.01 | 0.01 | 42 | 1009.0 |
| 20260503230051 | 52 | 316 | 8.7 | 18.2 | 0.00 | 0.01 | 0.01 | 40 | 1009.2 |
| 20260503224553 | 52 | 287 | 7.8 | 14.8 | 0.00 | 0.01 | 0.01 | 38 | 1009.0 |
| 20260503223052 | 52 | 281 | 4.3 | 13.9 | 0.00 | 0.01 | 0.01 | 35 | 1008.9 |
| 20260503221553 | 52 | 312 | 3.5 | 9.6 | 0.00 | 0.01 | 0.01 | 35 | 1008.7 |
| 20260503220050 | 53 | 326 | 7.8 | 20.0 | 0.00 | 0.01 | 0.01 | 32 | 1008.5 |